weather.gov     
National Weather Service

Regional Weather Roundup
NWS Homepage
This page is being discontinued on March 12, 2014.
The same data is available at this site. Please update your bookmarks.
Thank you, and we apologize for the inconvenience.
Please send an email to SR-SRH.Webmaster@noaa.gov with any concerns.


Current Version
Previous Version:    01  02  03  04  05  06  07  08  09  10  11  12  13  14  15  16  17  18  19  20  21  22  23  24  25  26  27  28  29  30  
   31  32  33  34  35  36  37  38  39  40  41  42  43  44  45  46  47  48  49  50  51  52  53  
[Printable]
013
ASUS43 KLSX 290007
RWRMO

WEATHER SUMMARY FOR MISSOURI
NATIONAL WEATHER SERVICE SPRINGFIELD MO
700 PM CDT MON JUL 28 2014

NOTE: "FAIR" INDICATES FEW OR NO CLOUDS BELOW 12,000 FEET WITH NO
       SIGNIFICANT WEATHER AND/OR OBSTRUCTIONS TO VISIBILITY.
       CURRENT SKY AND/OR WEATHER CONDITIONS ARE NOT AVAILABLE FOR
       CHILLICOTHE AND FARMINGTON.

MOZ001>031-035>038-043-044-053-054-290100-
...NORTHERN AND WESTERN MISSOURI...

CITY           SKY/WX    TMP DP  RH WIND       PRES   REMARKS
KANSAS CTY INT MOSUNNY   74  60  61 N7        30.16F
6HR MIN TEMP:  74; 6HR MAX TEMP:  80;

KANSAS C DTWN  MOSUNNY   79  59  50 N9        30.14F
6HR MIN TEMP:  76; 6HR MAX TEMP:  82;

LEE`S SUMMIT   SUNNY     78  56  46 N9        30.15F
6HR MIN TEMP:  76; 6HR MAX TEMP:  81;

ST JOSEPH      SUNNY     76  60  57 NW6       30.16F
6HR MIN TEMP:  73; 6HR MAX TEMP:  79;

CHILLICOTHE      N/A     79  55  43 N5        30.15F
6HR MIN TEMP:  76; 6HR MAX TEMP:  81;

KIRKSVILLE     MOSUNNY   74  55  51 N10       30.16F
6HR MIN TEMP:  74; 6HR MAX TEMP:  78;


$$
MOZ066>068-077>081-088>096-101>105-290100-
...SOUTHWEST MISSOURI...

CITY           SKY/WX    TMP DP  RH WIND       PRES   REMARKS
SPRINGFIELD    SUNNY     80  55  42 N13       30.12F
6HR MIN TEMP:  79; 6HR MAX TEMP:  85;

JOPLIN         SUNNY     82  56  40 N13G18    30.13S
6HR MIN TEMP:  82; 6HR MAX TEMP:  87;


$$
MOZ032>034-039>042-045>050-055>058-069>072-290100-
...CENTRAL MISSOURI...

CITY           SKY/WX    TMP DP  RH WIND       PRES   REMARKS
COLUMBIA       SUNNY     76  54  46 N12       30.14S
6HR MIN TEMP:  75; 6HR MAX TEMP:  81;

JEFFERSON CITY MOSUNNY   76  55  48 N10       30.12R
6HR MIN TEMP:  76; 6HR MAX TEMP:  80;

ROLLA          MOSUNNY   76  55  48 N14G22    30.10F
6HR MIN TEMP:  76; 6HR MAX TEMP:  83;

SEDALIA        SUNNY     77  58  51 N10       30.14F
6HR MIN TEMP:  76; 6HR MAX TEMP:  82;

WHITEMAN AFB   MOSUNNY   76  49  39 N10       30.13F
OSAGE BEACH    MOSUNNY   79  55  44 N7        30.11F

$$
MOZ051-052-059>065-290100-
...EAST CENTRAL MISSOURI...

CITY           SKY/WX    TMP DP  RH WIND       PRES   REMARKS
ST LOUIS INTL  PTSUNNY   73  56  54 N9        30.11S
6HR MIN TEMP:  73; 6HR MAX TEMP:  81;

SPIRIT OF STL  PTSUNNY   74  53  48 N15G21    30.10S
6HR MIN TEMP:  74; 6HR MAX TEMP:  80;

ST CHARLES     PTSUNNY   72  56  57 NW7       30.10F
6HR MIN TEMP:  72; 6HR MAX TEMP:  78;


$$
MOZ072>076-082>087-097>100-106>115-290100-
...SOUTH CENTRAL AND SOUTHEAST MISSOURI...

CITY           SKY/WX    TMP DP  RH WIND       PRES   REMARKS
CAPE GIRARDEAU CLOUDY    78  61  55 N13       30.04S
6HR MIN TEMP:  78; 6HR MAX TEMP:  83;

FARMINGTON     CLOUDY    75  57  53 NW9G18    30.11R
6HR MIN TEMP:  75; 6HR MAX TEMP:  79;

POPLAR BLUFF   SUNNY     82  61  48 N6        30.02S
6HR MIN TEMP:  80; 6HR MAX TEMP:  86;

WEST PLAINS    MOSUNNY   80  56  43 NW7       30.09F
6HR MIN TEMP:  79; 6HR MAX TEMP:  84;


$$




U.S. Dept. of Commerce
NOAA National Weather Service
1325 East West Highway
Silver Spring, MD 20910
E-mail: w-nws.webmaster@noaa.gov
Page last modified: May 16, 2007
NATIONAL WEATHER SERVICE: for Safety, for Work, for Fun - FOR LIFE